星链-31205 (STARLINK-31205 )

导读 | 星芒AI

STARLINK-31205 是 SpaceX Starlink 卫星互联网项目中的一颗低轨卫星,属于第二代 Starlink 卫星星座的一部分。该卫星由 SpaceX 研制并发射,旨在为全球用户提供高速、低延迟的宽带互联网服务。它运行在约 550 公里的轨道高度,配备先进通信设备和星间激光链路,提升网络覆盖与传输效率。作为 Starlink 计划的重要组成,STARLINK-31205 有助于扩展卫星互联网的覆盖范围,特别是在偏远和网络基础设施薄弱的地区。

基本信息
目录编号:
59046
目录名称:
STARLINK-31205
国际标识:
2024-038Z
轨道中心:
EARTH
卫星名称:
星链-31205
卫星全名:
星链-31205 (STARLINK-31205 )
卫星状态:
在轨 (已飞行663 天)
发射日期:
2024-02-25 UTC
国别 :
美国 (US)
星等 :
--
轨道信息
数据来源 国际轨道数据 AOE轨道数据
星历时间 2025-12-19T04:26:43+0800
1天前
查看轨道信息
2025-12-19T04:00:00+0800
1天前
查看轨道信息
半长轴 6861.156km 6861.151km
偏心率 0.000113 0.0001235
轨道倾角 43.001° 43.004°
近地点辐角 275.511° 257.076°
升交点赤经 120.220° 120.327°
平近点角 84.562° 0.826°
近地点 482.245km 482.168km
远地点 483.797km 483.864km
周期 94.266分钟 94.266分钟
每日圈数 15.275902 15.27592
详细信息
固有亮度:
5
最大亮度:
0.3
卫星平台:
Starlink v2.0 mini
覆盖范围:
全球
运营商:
太空探索技术公司
运营商所在国:
美国
制造商(研发单位):
太空探索技术公司
制造商所在国:
美国
使用方式:
暂无
卫星简介
星链(Starlink)计划是由太空探索技术公司(SpaceX)提出的一个巨型低轨卫星互联网星座项目,计划在2019年至2024年间在太空搭建由约1.2万颗卫星组成的“星链”网络,其中1584颗将部署在地球上空550千米处的近地轨道,并从2020年开始工作。该卫星仍在工作。
2D轨道图
3D轨道图
轨道高度分析图
轨道倾角分析图
轨道综合分析图
查看轨道综合分析图